Hourly Data Report for December 06, 2003

TORONTO CITY
ONTARIO

43°40'00.000" N
79°24'00.000" W
112.50 m
6158355
71508
XTO

Download Data

Hourly Data (December 2003)
Hourly Data Report for December 6, 2003
TIME
LST
Temp Definition
°C
Dew Point Definition
°C
Rel Hum Definition
%
Precip. Amount Definition
mm

Wind Dir Definition
10's deg

Wind Spd Definition
km/h
Visibility Definition
km
Stn Press Definition
kPa
Hmdx Definition


Wind Chill Definition


Weather Definition


00:00 -4.3 -13.3 49   LegendMM LegendMM LegendMM 101.00     LegendNANA
01:00 -4.8 -12.8 53   LegendMM LegendMM LegendMM 100.98     LegendNANA
02:00 -5.3 -12.8 56   LegendMM LegendMM LegendMM 100.91     LegendNANA
03:00 -5.6 -13.1 55   LegendMM LegendMM LegendMM 100.87     LegendNANA
04:00 -5.6 -13.1 55   LegendMM LegendMM LegendMM 100.92     LegendNANA
05:00 -6.1 -13.1 58   LegendMM LegendMM LegendMM 100.97     LegendNANA
06:00 -7.0 -12.7 64   LegendMM LegendMM LegendMM 100.96     LegendNANA
07:00 -7.0 -12.7 64   LegendMM LegendMM LegendMM 100.99     LegendNANA
08:00 -6.4 -12.4 62   LegendMM LegendMM LegendMM 100.97     LegendNANA
09:00 -6.0 -12.6 60   LegendMM LegendMM LegendMM 100.99     LegendNANA
10:00 -5.2 -12.3 57   LegendMM LegendMM LegendMM 101.01     LegendNANA
11:00 -4.8 -10.5 64   LegendMM LegendMM LegendMM 100.97     LegendNANA
12:00 -3.8 -10.1 62   LegendMM LegendMM LegendMM 100.91     LegendNANA
13:00 -2.6 -11.7 50   LegendMM LegendMM LegendMM 100.86     LegendNANA
14:00 -3.7 -9.8 63   LegendMM LegendMM LegendMM 100.83     LegendNANA
15:00 -3.7 -10.0 62   LegendMM LegendMM LegendMM 100.82     LegendNANA
16:00 -3.3 -9.8 61   LegendMM LegendMM LegendMM 100.86     LegendNANA
17:00 -2.8 -11.1 53   LegendMM LegendMM LegendMM 100.88     LegendNANA
18:00 -3.5 -12.0 52   LegendMM LegendMM LegendMM 100.93     LegendNANA
19:00 -4.3 -12.8 51   LegendMM LegendMM LegendMM 100.96     LegendNANA
20:00 -4.6 -13.8 49   LegendMM LegendMM LegendMM 100.97     LegendNANA
21:00 -5.2 -13.8 51   LegendMM LegendMM LegendMM 100.95     LegendNANA
22:00 -6.5 -14.8 52   LegendMM LegendMM LegendMM 100.94     LegendNANA
23:00 -7.2 -15.2 53   LegendMM LegendMM LegendMM 100.96     LegendNANA

Notes on Data Quality.

Legend

  • E = Estimated
  • M = Missing
  • NA = Not Available*
  • [empty] = Indicates an unobserved value
Date modified: